COSMOS 1231

导读 | 星芒AI

COSMOS 1231 是一颗由苏联发射的军用通信卫星,于1980年11月19日由质子-K火箭送入轨道。该卫星属于“天线”(Antey)系列,主要用于支持军事通信和指挥控制系统。其具体任务细节和运行参数未公开,因其高度机密的性质,外界对其了解有限。COSMOS 1231 在轨运行多年,最终失去联系并成为太空碎片。该卫星体现了冷战时期苏联在军事航天领域的技术能力与战略部署。

基本信息
目录编号:
12110
目录名称:
COSMOS 1231
国际标识:
1980-102D
轨道中心:
EARTH
卫星名称:
COSMOS 1231
卫星全名:
--
卫星状态:
在轨 (已飞行16426 天)
发射日期:
1980-12-23 UTC
国别 :
俄罗斯(独联体) (CIS)
星等 :
--
轨道信息
数据来源 国际轨道数据
星历时间: 2025-12-13T03:26:29+0800
14小时前
查看轨道信息
半长轴: 7812.934km
偏心率: 0.0037389
轨道倾角: 73.994°
近地点辐角 340.002°
升交点赤经 241.204°
平近点角 88.081°
近地点: 1405.587km
远地点: 1464.011km
周期: 114.546分钟
每日圈数: 12.571339
详细信息
使用方式:
暂无
2D轨道图
3D轨道图
轨道高度分析图
轨道倾角分析图
轨道综合分析图
查看轨道综合分析图